| time (UTC) | temp C | wind direction | speed KPH | gust KPH | rain 1hr cm | rain 24hr cm | rain mn cm | humidity % | barometer mb |
| 20260504130536 | 14 | 148 | 3.2 | 12.9 | 0.00 | 0.00 | 0.00 | 49 | 1012.0 |
| 20260504120105 | 8 | 360 | 1.6 | 6.4 | 0.00 | 0.00 | 0.00 | 76 | 1012.3 |
| 20260504110534 | 2 | 0 | 0.0 | 1.6 | 0.00 | 0.00 | 0.00 | 84 | 1012.4 |
| 20260504100533 | 1 | 0 | 0.0 | 3.2 | 0.00 | 0.00 | 0.00 | 82 | 1012.1 |
| 20260504081544 | 2 | 0 | 0.0 | 1.6 | 0.00 | 0.00 | 0.00 | 81 | 1012.2 |
| 20260504081035 | 2 | 360 | 0.0 | 1.6 | 0.00 | 0.00 | 0.00 | 81 | 1012.1 |
| 20260504080534 | 2 | 360 | 0.0 | 1.6 | 0.00 | 0.00 | 0.00 | 81 | 1012.1 |
| 20260504050535 | 2 | 0 | 0.0 | 1.6 | 0.00 | 0.00 | 0.00 | 76 | 1011.6 |
| 20260504045534 | 2 | 0 | 0.0 | 0.0 | 0.00 | 0.00 | 0.00 | 75 | 1011.6 |
| 20260504045034 | 2 | 0 | 0.0 | 0.0 | 0.00 | 0.00 | 0.00 | 75 | 1011.5 |
| 20260504044544 | 2 | 0 | 0.0 | 0.0 | 0.00 | 0.00 | 0.00 | 75 | 1011.6 |
| 20260504044034 | 2 | 0 | 0.0 | 1.6 | 0.00 | 0.00 | 0.00 | 75 | 1011.6 |
| 20260504043534 | 2 | 0 | 0.0 | 1.6 | 0.00 | 0.00 | 0.00 | 75 | 1011.4 |
| 20260504043105 | 3 | 0 | 0.0 | 1.6 | 0.00 | 0.00 | 0.00 | 75 | 1011.5 |
| 20260504042534 | 3 | 0 | 0.0 | 0.0 | 0.00 | 0.00 | 0.00 | 75 | 1011.4 |
| 20260504042034 | 3 | 0 | 0.0 | 0.0 | 0.00 | 0.00 | 0.00 | 75 | 1011.4 |
| 20260504041540 | 3 | 0 | 0.0 | 0.0 | 0.00 | 0.00 | 0.00 | 75 | 1011.3 |
| 20260504041034 | 3 | 0 | 0.0 | 1.6 | 0.00 | 0.00 | 0.00 | 75 | 1011.4 |
| 20260504040539 | 3 | 0 | 0.0 | 1.6 | 0.00 | 0.00 | 0.00 | 75 | 1011.3 |
| 20260504040043 | 3 | 0 | 0.0 | 1.6 | 0.00 | 0.00 | 0.00 | 75 | 1011.2 |
| 20260504035535 | 3 | 0 | 0.0 | 1.6 | 0.00 | 0.00 | 0.00 | 75 | 1011.1 |
| 20260504035035 | 3 | 0 | 0.0 | 1.6 | 0.00 | 0.00 | 0.00 | 75 | 1011.2 |
| 20260504034547 | 3 | 0 | 0.0 | 1.6 | 0.00 | 0.00 | 0.00 | 75 | 1011.1 |
| 20260504034034 | 3 | 0 | 0.0 | 1.6 | 0.00 | 0.00 | 0.00 | 75 | 1011.2 |
| 20260504033534 | 3 | 0 | 0.0 | 1.6 | 0.00 | 0.00 | 0.00 | 74 | 1011.0 |
| 20260504033045 | 3 | 0 | 0.0 | 1.6 | 0.00 | 0.00 | 0.00 | 74 | 1011.2 |
| 20260504032534 | 3 | 0 | 0.0 | 1.6 | 0.00 | 0.00 | 0.00 | 74 | 1011.1 |
| 20260504032034 | 3 | 219 | 0.0 | 1.6 | 0.00 | 0.00 | 0.00 | 74 | 1011.2 |
| 20260504031551 | 4 | 0 | 0.0 | 1.6 | 0.00 | 0.00 | 0.00 | 73 | 1011.2 |
| 20260504031034 | 4 | 360 | 0.0 | 1.6 | 0.00 | 0.00 | 0.00 | 73 | 1011.1 |
| 20260504030534 | 4 | 0 | 0.0 | 1.6 | 0.00 | 0.00 | 0.00 | 73 | 1011.2 |
| 20260504030100 | 4 | 360 | 0.0 | 1.6 | 0.00 | 0.00 | 0.00 | 73 | 1011.0 |
| 20260504025534 | 4 | 360 | 0.0 | 1.6 | 0.00 | 0.00 | 0.00 | 72 | 1011.2 |
| 20260504025034 | 4 | 0 | 0.0 | 1.6 | 0.00 | 0.00 | 0.00 | 72 | 1011.1 |
| 20260504024540 | 5 | 360 | 0.0 | 1.6 | 0.00 | 0.00 | 0.00 | 71 | 1011.1 |
| 20260504024034 | 5 | 360 | 0.0 | 1.6 | 0.00 | 0.00 | 0.00 | 70 | 1011.2 |
| 20260504023534 | 5 | 0 | 0.0 | 1.6 | 0.00 | 0.00 | 0.00 | 69 | 1011.2 |
| 20260504023049 | 5 | 0 | 0.0 | 1.6 | 0.00 | 0.00 | 0.00 | 70 | 1011.2 |
| 20260504022538 | 5 | 0 | 0.0 | 1.6 | 0.00 | 0.00 | 0.00 | 69 | 1011.3 |
| 20260504022035 | 5 | 0 | 0.0 | 1.6 | 0.00 | 0.00 | 0.00 | 68 | 1011.4 |
| 20260504021548 | 5 | 0 | 0.0 | 1.6 | 0.00 | 0.00 | 0.00 | 68 | 1011.3 |
| 20260504021036 | 5 | 0 | 0.0 | 1.6 | 0.00 | 0.00 | 0.00 | 68 | 1011.3 |
| 20260504020538 | 5 | 0 | 0.0 | 0.0 | 0.00 | 0.00 | 0.00 | 66 | 1011.3 |
| 20260504020044 | 6 | 0 | 0.0 | 0.0 | 0.00 | 0.00 | 0.00 | 67 | 1011.2 |
| 20260504015534 | 6 | 0 | 0.0 | 0.0 | 0.00 | 0.00 | 0.00 | 66 | 1011.2 |
| 20260504015034 | 6 | 0 | 0.0 | 0.0 | 0.00 | 0.00 | 0.00 | 65 | 1011.1 |
| 20260504014541 | 6 | 0 | 0.0 | 0.0 | 0.00 | 0.00 | 0.00 | 65 | 1011.0 |
| 20260504014034 | 6 | 0 | 0.0 | 0.0 | 0.00 | 0.00 | 0.00 | 64 | 1011.1 |
| 20260504013535 | 6 | 0 | 0.0 | 0.0 | 0.00 | 0.00 | 0.00 | 64 | 1011.0 |
| 20260504013044 | 7 | 0 | 0.0 | 0.0 | 0.00 | 0.00 | 0.00 | 63 | 1010.9 |
| 20260504012534 | 7 | 0 | 0.0 | 0.0 | 0.00 | 0.00 | 0.00 | 61 | 1010.9 |
| 20260504012035 | 7 | 0 | 0.0 | 0.0 | 0.00 | 0.00 | 0.00 | 61 | 1011.0 |
| 20260504011541 | 7 | 0 | 0.0 | 0.0 | 0.00 | 0.00 | 0.00 | 60 | 1010.8 |
| 20260504011037 | 7 | 0 | 0.0 | 0.0 | 0.00 | 0.00 | 0.00 | 59 | 1010.9 |
| 20260504010534 | 8 | 0 | 0.0 | 0.0 | 0.00 | 0.00 | 0.00 | 59 | 1010.8 |
| 20260504010052 | 8 | 0 | 0.0 | 0.0 | 0.00 | 0.00 | 0.00 | 58 | 1010.8 |
| 20260504005534 | 8 | 0 | 0.0 | 0.0 | 0.00 | 0.00 | 0.00 | 58 | 1010.7 |
| 20260504005034 | 8 | 0 | 0.0 | 0.0 | 0.00 | 0.00 | 0.00 | 57 | 1010.7 |
| 20260504004547 | 9 | 0 | 0.0 | 0.0 | 0.00 | 0.00 | 0.00 | 56 | 1010.5 |
| 20260504004035 | 9 | 0 | 0.0 | 0.0 | 0.00 | 0.00 | 0.00 | 53 | 1010.5 |
| 20260504003534 | 10 | 0 | 0.0 | 0.0 | 0.00 | 0.00 | 0.00 | 53 | 1010.6 |
| 20260504003044 | 10 | 0 | 0.0 | 0.0 | 0.00 | 0.00 | 0.00 | 52 | 1010.5 |
| 20260504002534 | 10 | 0 | 0.0 | 0.0 | 0.00 | 0.00 | 0.00 | 51 | 1010.3 |
| 20260504002034 | 10 | 0 | 0.0 | 0.0 | 0.00 | 0.00 | 0.00 | 50 | 1010.3 |
| 20260504001542 | 10 | 0 | 0.0 | 0.0 | 0.00 | 0.00 | 0.00 | 50 | 1010.2 |
| 20260504001034 | 11 | 0 | 0.0 | 0.0 | 0.00 | 0.00 | 0.00 | 49 | 1010.1 |
| 20260504000534 | 11 | 0 | 0.0 | 1.6 | 0.00 | 0.00 | 0.00 | 48 | 1010.1 |
| 20260504000040 | 11 | 0 | 0.0 | 1.6 | 0.00 | 0.00 | 0.00 | 47 | 1010.1 |
| 20260503235533 | 11 | 0 | 0.0 | 1.6 | 0.00 | 0.00 | 0.00 | 47 | 1010.0 |
| 20260503235035 | 12 | 0 | 0.0 | 1.6 | 0.00 | 0.00 | 0.00 | 46 | 1010.1 |
| 20260503234543 | 12 | 0 | 0.0 | 1.6 | 0.00 | 0.00 | 0.00 | 45 | 1010.0 |
| 20260503234038 | 12 | 0 | 0.0 | 3.2 | 0.00 | 0.00 | 0.00 | 45 | 1010.0 |
| 20260503233534 | 12 | 0 | 0.0 | 3.2 | 0.00 | 0.00 | 0.00 | 44 | 1010.0 |
| 20260503233041 | 12 | 360 | 1.6 | 3.2 | 0.00 | 0.00 | 0.00 | 44 | 1009.9 |
| 20260503232537 | 12 | 219 | 0.0 | 8.0 | 0.00 | 0.00 | 0.00 | 42 | 1009.9 |
| 20260503232034 | 13 | 219 | 0.0 | 8.0 | 0.00 | 0.00 | 0.00 | 41 | 1009.9 |
| 20260503231548 | 13 | 360 | 3.2 | 8.0 | 0.00 | 0.00 | 0.00 | 41 | 1009.9 |
| 20260503231038 | 13 | 360 | 1.6 | 6.4 | 0.00 | 0.00 | 0.00 | 42 | 1009.8 |
| 20260503230536 | 13 | 360 | 0.0 | 6.4 | 0.00 | 0.00 | 0.00 | 40 | 1009.8 |
| 20260503230100 | 13 | 0 | 1.6 | 6.4 | 0.00 | 0.00 | 0.00 | 40 | 1009.8 |
| 20260503225534 | 13 | 360 | 1.6 | 4.8 | 0.00 | 0.00 | 0.00 | 39 | 1009.8 |
| 20260503225034 | 13 | 360 | 1.6 | 4.8 | 0.00 | 0.00 | 0.00 | 37 | 1009.8 |
| 20260503224542 | 13 | 360 | 1.6 | 12.9 | 0.00 | 0.00 | 0.00 | 39 | 1009.8 |
| 20260503224036 | 13 | 226 | 1.6 | 16.1 | 0.00 | 0.00 | 0.00 | 37 | 1009.8 |
| 20260503223534 | 13 | 0 | 4.8 | 16.1 | 0.00 | 0.00 | 0.00 | 37 | 1009.8 |
| 20260503223100 | 13 | 231 | 3.2 | 14.5 | 0.00 | 0.00 | 0.00 | 39 | 1009.8 |
| 20260503222533 | 13 | 0 | 1.6 | 6.4 | 0.00 | 0.00 | 0.00 | 37 | 1009.6 |
| 20260503222034 | 14 | 213 | 1.6 | 16.1 | 0.00 | 0.00 | 0.00 | 36 | 1009.6 |
| 20260503221548 | 14 | 161 | 3.2 | 16.1 | 0.00 | 0.00 | 0.00 | 37 | 1009.6 |
| 20260503221035 | 14 | 187 | 3.2 | 16.1 | 0.00 | 0.00 | 0.00 | 34 | 1009.5 |
| 20260503220535 | 14 | 360 | 3.2 | 6.4 | 0.00 | 0.00 | 0.00 | 36 | 1009.3 |
| 20260503220042 | 14 | 0 | 0.0 | 6.4 | 0.00 | 0.00 | 0.00 | 37 | 1009.4 |
| 20260503215534 | 14 | 360 | 1.6 | 8.0 | 0.00 | 0.00 | 0.00 | 35 | 1009.4 |
| 20260503215034 | 14 | 360 | 1.6 | 8.0 | 0.00 | 0.00 | 0.00 | 34 | 1009.3 |
| 20260503214552 | 14 | 360 | 1.6 | 12.9 | 0.00 | 0.00 | 0.00 | 35 | 1009.2 |
| 20260503214034 | 14 | 360 | 1.6 | 12.9 | 0.00 | 0.00 | 0.00 | 38 | 1009.3 |
| 20260503213534 | 14 | 360 | 3.2 | 12.9 | 0.00 | 0.00 | 0.00 | 35 | 1009.3 |
| 20260503213046 | 14 | 360 | 1.6 | 11.3 | 0.00 | 0.00 | 0.00 | 33 | 1009.3 |
| 20260503212535 | 14 | 360 | 3.2 | 11.3 | 0.00 | 0.00 | 0.00 | 34 | 1009.3 |
| 20260503212034 | 14 | 265 | 3.2 | 12.9 | 0.00 | 0.00 | 0.00 | 35 | 1009.2 |
| 20260503211543 | 14 | 239 | 4.8 | 12.9 | 0.00 | 0.00 | 0.00 | 33 | 1009.1 |
| 20260503211034 | 14 | 213 | 3.2 | 12.9 | 0.00 | 0.00 | 0.00 | 33 | 1009.2 |
| 20260503210535 | 14 | 211 | 3.2 | 12.9 | 0.00 | 0.00 | 0.00 | 34 | 1009.2 |
| 20260503210042 | 15 | 154 | 3.2 | 16.1 | 0.00 | 0.00 | 0.00 | 33 | 1009.3 |
| 20260503205534 | 15 | 360 | 4.8 | 16.1 | 0.00 | 0.00 | 0.00 | 34 | 1009.3 |
| 20260503205036 | 15 | 360 | 3.2 | 16.1 | 0.00 | 0.00 | 0.00 | 31 | 1009.3 |
| 20260503204544 | 15 | 360 | 3.2 | 9.7 | 0.00 | 0.00 | 0.00 | 34 | 1009.4 |
| 20260503204034 | 15 | 360 | 3.2 | 9.7 | 0.00 | 0.00 | 0.00 | 32 | 1009.6 |
| 20260503203534 | 15 | 360 | 1.6 | 16.1 | 0.00 | 0.00 | 0.00 | 31 | 1009.5 |
| 20260503203038 | 15 | 360 | 4.8 | 16.1 | 0.00 | 0.00 | 0.00 | 32 | 1009.6 |
| 20260503202535 | 15 | 360 | 3.2 | 16.1 | 0.00 | 0.00 | 0.00 | 33 | 1009.5 |
| 20260503202036 | 15 | 360 | 3.2 | 14.5 | 0.00 | 0.00 | 0.00 | 35 | 1009.6 |
| 20260503201545 | 15 | 360 | 3.2 | 25.7 | 0.00 | 0.00 | 0.00 | 31 | 1009.5 |
| 20260503201053 | 15 | 360 | 6.4 | 25.7 | 0.00 | 0.00 | 0.00 | 31 | 1009.6 |
| 20260503200534 | 15 | 360 | 4.8 | 12.9 | 0.00 | 0.00 | 0.00 | 33 | 1009.4 |
| 20260503200044 | 15 | 360 | 1.6 | 8.0 | 0.00 | 0.00 | 0.00 | 34 | 1009.6 |
| 20260503195535 | 15 | 360 | 3.2 | 20.9 | 0.00 | 0.00 | 0.00 | 30 | 1009.6 |
| 20260503195034 | 15 | 360 | 3.2 | 20.9 | 0.00 | 0.00 | 0.00 | 37 | 1009.6 |
| 20260503194557 | 15 | 360 | 4.8 | 20.9 | 0.00 | 0.00 | 0.00 | 32 | 1009.8 |
| 20260503194034 | 15 | 360 | 1.6 | 14.5 | 0.00 | 0.00 | 0.00 | 30 | 1009.7 |
| 20260503193534 | 15 | 360 | 4.8 | 14.5 | 0.00 | 0.00 | 0.00 | 33 | 1009.8 |
| 20260503193044 | 15 | 360 | 3.2 | 9.7 | 0.00 | 0.00 | 0.00 | 31 | 1010.0 |
| 20260503192534 | 15 | 360 | 3.2 | 12.9 | 0.00 | 0.00 | 0.00 | 37 | 1009.9 |
| 20260503192034 | 15 | 360 | 3.2 | 12.9 | 0.00 | 0.00 | 0.00 | 34 | 1009.9 |
| 20260503191542 | 15 | 360 | 3.2 | 12.9 | 0.00 | 0.00 | 0.00 | 37 | 1010.0 |
| 20260503191035 | 15 | 360 | 1.6 | 17.7 | 0.00 | 0.00 | 0.00 | 33 | 1009.9 |
| 20260503190538 | 14 | 360 | 4.8 | 17.7 | 0.00 | 0.00 | 0.00 | 38 | 1010.1 |
| 20260503190043 | 15 | 360 | 3.2 | 17.7 | 0.00 | 0.00 | 0.00 | 33 | 1010.2 |
| 20260503185534 | 15 | 360 | 3.2 | 14.5 | 0.00 | 0.00 | 0.00 | 36 | 1010.3 |
| 20260503185035 | 14 | 360 | 3.2 | 12.9 | 0.00 | 0.00 | 0.00 | 38 | 1010.3 |
| 20260503184543 | 13 | 360 | 4.8 | 14.5 | 0.00 | 0.00 | 0.00 | 33 | 1010.4 |
| 20260503184035 | 14 | 360 | 3.2 | 14.5 | 0.00 | 0.00 | 0.00 | 32 | 1010.4 |
| 20260503183535 | 13 | 240 | 3.2 | 16.1 | 0.00 | 0.00 | 0.00 | 36 | 1010.4 |
| 20260503183053 | 13 | 220 | 3.2 | 16.1 | 0.00 | 0.00 | 0.00 | 34 | 1010.3 |
| 20260503182534 | 13 | 270 | 3.2 | 16.1 | 0.00 | 0.00 | 0.00 | 35 | 1010.6 |
| 20260503182034 | 14 | 221 | 6.4 | 14.5 | 0.00 | 0.00 | 0.00 | 34 | 1010.4 |
| 20260503181557 | 13 | 252 | 4.8 | 11.3 | 0.00 | 0.00 | 0.00 | 39 | 1010.6 |
| 20260503181038 | 13 | 209 | 3.2 | 11.3 | 0.00 | 0.00 | 0.00 | 36 | 1010.6 |
| 20260503180536 | 12 | 193 | 3.2 | 11.3 | 0.00 | 0.00 | 0.00 | 36 | 1010.2 |
| 20260503180050 | 12 | 242 | 3.2 | 17.7 | 0.00 | 0.00 | 0.00 | 38 | 1010.7 |
| 20260503175533 | 12 | 84 | 4.8 | 17.7 | 0.00 | 0.00 | 0.00 | 38 | 1010.5 |
| 20260503175034 | 12 | 292 | 4.8 | 17.7 | 0.00 | 0.00 | 0.00 | 39 | 1010.7 |
| 20260503174547 | 12 | 86 | 3.2 | 14.5 | 0.00 | 0.00 | 0.00 | 40 | 1010.6 |
| 20260503174034 | 12 | 306 | 3.2 | 16.1 | 0.00 | 0.00 | 0.00 | 37 | 1010.8 |
| 20260503173535 | 12 | 340 | 3.2 | 16.1 | 0.00 | 0.00 | 0.00 | 36 | 1011.0 |
| 20260503173041 | 12 | 346 | 4.8 | 12.9 | 0.00 | 0.00 | 0.00 | 38 | 1010.9 |
| 20260503172536 | 12 | 91 | 4.8 | 11.3 | 0.00 | 0.00 | 0.00 | 37 | 1011.1 |
| 20260503172034 | 13 | 259 | 3.2 | 12.9 | 0.00 | 0.00 | 0.00 | 36 | 1011.0 |
| 20260503171544 | 13 | 143 | 3.2 | 12.9 | 0.00 | 0.00 | 0.00 | 37 | 1011.2 |
| 20260503171034 | 12 | 151 | 3.2 | 12.9 | 0.00 | 0.00 | 0.00 | 42 | 1011.0 |
| 20260503170534 | 12 | 198 | 3.2 | 12.9 | 0.00 | 0.00 | 0.00 | 38 | 1011.1 |
| 20260503150534 | 8 | 234 | 1.6 | 6.4 | 0.00 | 0.00 | 0.00 | 49 | 1012.0 |